Change the Weather History Date:

Wednesday, November 19, 2014

  Actual Average Record
Temperature  
Mean Temperature 48 °F -  
Max Temperature 60 °F 74 °F 86 °F (1998)
Min Temperature 37 °F 57 °F 37 °F (2008)
Degree Days  
Heating Degree Days 16    
Moisture  
Dew Point 37 °F    
Average Humidity 75    
Maximum Humidity 93    
Minimum Humidity 54    
Precipitation  
Precipitation 0.00 in - - ()
Sea Level Pressure  
Sea Level Pressure 30.31 in    
Wind  
Wind Speed 9 mph (North)    
Max Wind Speed 14 mph    
Max Gust Speed 20 mph    
Visibility 11 miles    
Events      
Averages and records for this station are not official NWS values.
T = Trace of Precipitation, MM = Missing Value Source: NWS Daily Summary

Daily Weather History Graph

Daily Weather History Graph

Search for Another Location

Airport or City:

Trip Planner

Search our weather history database for the weather conditions in past years. The results will help you decide how hot, cold, wet, or windy it might be!

Date:

Astronomy

Nov. 19, 2014 Rise Set
Actual Time 6:52 AM EST 5:33 PM EST
Civil Twilight 6:27 AM EST 5:58 PM EST
Nautical Twilight 5:59 AM EST 6:27 PM EST
Astronomical Twilight 5:31 AM EST 6:55 PM EST
Moon 4:02 AM EST (11/19) 3:47 PM EST (11/19)
Length of Visible Light 11h 31m
Length of Day
10h 41m
Waning Crescent, 9% of the Moon is Illuminated
Nov 19
Waning Crescent
Nov 22
New
Nov 29
First Quarter
Dec 6
Full
Dec 14
Last Quarter

Hourly Weather History & Observations

Time (EST) Temp. Windchill Dew Point Humidity Pressure Visibility Wind Dir Wind Speed Gust Speed Precip Events Conditions
12:15 AM 41.0 °F 36.4 °F 33.8 °F 76% 30.31 in 10.0 mi North 6.9 mph - N/A   Clear
12:35 AM 41.0 °F 36.4 °F 32.0 °F 70% 30.31 in 10.0 mi North 6.9 mph - N/A   Clear
12:55 AM 41.0 °F 35.2 °F 32.0 °F 70% 30.31 in 10.0 mi North 9.2 mph - N/A   Clear
1:15 AM 41.0 °F 35.2 °F 32.0 °F 70% 30.31 in 10.0 mi North 9.2 mph - N/A   Clear
1:35 AM 39.2 °F 33.0 °F 32.0 °F 75% 30.31 in 10.0 mi North 9.2 mph - N/A   Clear
1:55 AM 39.2 °F 33.0 °F 32.0 °F 75% 30.30 in 10.0 mi North 9.2 mph - N/A   Clear
2:15 AM 39.2 °F 33.0 °F 32.0 °F 75% 30.31 in 10.0 mi North 9.2 mph - N/A   Clear
2:35 AM 37.4 °F 30.3 °F 30.2 °F 75% 30.31 in 10.0 mi North 10.4 mph - N/A   Clear
2:55 AM 37.4 °F 30.8 °F 30.2 °F 75% 30.31 in 10.0 mi North 9.2 mph - N/A   Clear
3:15 AM 37.4 °F 30.3 °F 28.4 °F 70% 30.30 in 10.0 mi North 10.4 mph - N/A   Clear
3:35 AM 37.4 °F 32.1 °F 30.2 °F 75% 30.30 in 10.0 mi North 6.9 mph - N/A   Clear
3:55 AM 37.4 °F 31.4 °F 30.2 °F 75% 30.31 in 10.0 mi North 8.1 mph - N/A   Scattered Clouds
4:15 AM 37.4 °F 29.8 °F 30.2 °F 75% 30.30 in 10.0 mi North 11.5 mph - N/A   Clear
4:35 AM 37.4 °F 30.3 °F 28.4 °F 70% 30.30 in 10.0 mi North 10.4 mph - N/A   Clear
5:54 AM 37.4 °F 29.8 °F 26.6 °F 65% 30.32 in 12.0 mi North 11.5 mph - N/A   Clear
6:51 AM 37.4 °F 29.8 °F 26.6 °F 65% 30.33 in 15.0 mi North 11.5 mph - N/A   Mostly Cloudy
7:54 AM 39.2 °F 31.2 °F 28.4 °F 65% 30.35 in 15.0 mi North 13.8 mph 18.4 mph N/A   Overcast
8:50 AM 41.0 °F - 30.2 °F 65% 30.37 in 15.0 mi North - - N/A   Mostly Cloudy
9:50 AM 44.6 °F - 33.8 °F 66% 30.39 in 15.0 mi North - - N/A   Mostly Cloudy
10:50 AM 53.6 °F - 37.4 °F 54% 30.37 in 15.0 mi NNE 12.7 mph 19.6 mph N/A   Mostly Cloudy
12:51 PM 53.6 °F - 39.2 °F 58% 30.31 in 15.0 mi NNE 11.5 mph - N/A   Mostly Cloudy
1:51 PM 57.2 °F - 46.4 °F 67% 30.29 in 15.0 mi NNE 9.2 mph - N/A   Mostly Cloudy
2:51 PM 60.8 °F - 44.6 °F 55% 30.26 in 15.0 mi NE 9.2 mph - N/A   Scattered Clouds
3:51 PM 60.8 °F - 44.6 °F 55% 30.26 in 15.0 mi NNE 9.2 mph - N/A   Scattered Clouds
4:51 PM 57.2 °F - 44.6 °F 63% 30.26 in 15.0 mi NNE 9.2 mph - N/A   Scattered Clouds
5:50 PM 53.6 °F - 44.6 °F 72% 30.26 in 10.0 mi North 6.9 mph - N/A   Clear
6:50 PM 51.8 °F - 44.6 °F 76% 30.28 in 10.0 mi North 6.9 mph - N/A   Clear
7:50 PM 50.0 °F - 44.6 °F 82% 30.29 in 10.0 mi North 6.9 mph - N/A   Clear
8:50 PM 48.2 °F - 44.6 °F 87% 30.30 in 10.0 mi North 8.1 mph - N/A   Clear
9:15 PM 46.4 °F 42.4 °F 42.8 °F 87% 30.30 in 10.0 mi North 8.1 mph - N/A   Clear
9:35 PM 46.4 °F 43.5 °F 42.8 °F 87% 30.30 in 10.0 mi North 5.8 mph - N/A   Clear
9:50 PM 46.4 °F 42.9 °F 42.8 °F 87% 30.30 in 10.0 mi North 6.9 mph - N/A   Clear
9:55 PM 46.4 °F 42.9 °F 42.8 °F 87% 30.30 in 10.0 mi North 6.9 mph - N/A   Clear
10:15 PM 46.4 °F 42.9 °F 42.8 °F 87% 30.30 in 10.0 mi North 6.9 mph - N/A   Clear
10:35 PM 44.6 °F 41.4 °F 42.8 °F 93% 30.30 in 10.0 mi North 5.8 mph - N/A   Clear
10:55 PM 44.6 °F 41.4 °F 42.8 °F 93% 30.30 in 10.0 mi North 5.8 mph - N/A   Clear
11:15 PM 44.6 °F 40.2 °F 42.8 °F 93% 30.29 in 10.0 mi North 8.1 mph - N/A   Clear
11:35 PM 44.6 °F 40.7 °F 42.8 °F 93% 30.29 in 10.0 mi North 6.9 mph - N/A   Clear
11:55 PM 44.6 °F 41.4 °F 42.8 °F 93% 30.29 in 10.0 mi North 5.8 mph - N/A   Clear